Location: Borgsdorf
(52.7129°N, 13.2767°E)
Time: 01:25:35
(UTC+00:00)

Daily predictions for brighter satellites

Satellite Brightness Start Highest point End
(mag) Time Altitude Azimuth Time Altitude Azimuth Time Altitude Azimuth
STARLINK-1105 2.8 00:00:07 10° W 00:03:11 59° SSW 00:06:13 10° ESE
STARLINK-1209 3.0 00:00:22 10° W 00:03:25 49° SSW 00:06:30 10° SE
STARLINK-1247 2.8 00:01:01 10° W 00:04:06 59° SSW 00:07:11 10° ESE
STARLINK-1227 2.8 00:01:29 10° W 00:04:33 59° SSW 00:07:36 10° ESE
STARLINK-1208 3.5 00:00:27 10° W 00:04:37 86° SSW 00:08:47 10° ESE
ATLAS CENTAUR R/B 1.1 00:02:29 10° WNW 00:04:39 78° NNE 00:08:42 10° ESE
STARLINK-1226 2.8 00:02:20 10° W 00:05:25 58° SSW 00:08:29 10° ESE
STARLINK-1215 2.8 00:03:16 10° W 00:06:22 58° SSW 00:09:26 10° ESE
STARLINK-1225 3.6 00:02:42 10° W 00:06:53 87° N 00:11:03 10° E
STARLINK-1217 2.8 00:05:03 10° W 00:08:07 57° SSW 00:11:10 10° ESE
Nadezhda 2 Rocket 4.4 00:04:33 22° S 00:08:44 89° W 00:14:54 10° N
STARLINK-1229 2.8 00:05:58 10° W 00:09:02 56° SSW 00:12:06 10° ESE
Cosmos 1726 4.0 00:07:02 10° NW 00:09:36 18° W 00:10:54 15° WSW
STARLINK-1271 3.5 00:05:27 10° W 00:09:36 85° SSW 00:13:46 10° ESE
STARLINK-1270 2.9 00:06:49 10° W 00:09:54 55° SSW 00:12:58 10° ESE
GEOS 3 Rocket 4.0 00:07:39 20° S 00:10:59 44° SW 00:16:03 10° NW
Cosmos 2058 Rocket 3.0 00:06:38 10° NNW 00:11:04 76° W 00:13:45 23° S
Lacrosse 4 Rocket 4.2 00:07:37 10° NNW 00:11:05 22° NNE 00:14:29 10° E
STARLINK-1189 2.9 00:08:40 10° W 00:11:44 54° SSW 00:14:47 10° ESE
STARLINK-1230 3.6 00:07:41 10° W 00:11:51 86° N 00:16:01 10° E
Meteor 1-29 2.9 00:08:34 10° NNE 00:12:00 77° WNW 00:13:32 30° SSW
STARLINK-1188 2.9 00:09:33 10° W 00:12:37 54° SSW 00:15:41 10° ESE
STARLINK-1235 3.0 00:10:16 10° W 00:13:15 46° SSW 00:16:15 10° SE
Cosmos 2228 3.7 00:09:30 10° NNW 00:13:30 39° W 00:15:32 24° SW
STARLINK-1187 2.9 00:10:40 10° W 00:13:41 49° SSW 00:16:42 10° SE
STARLINK-1154 3.5 00:10:26 10° W 00:14:36 83° SSW 00:18:45 10° ESE
SJ 16-02 2.9 00:10:57 10° N 00:15:02 35° NE 00:19:07 10° ESE
STARLINK-1191 2.9 00:12:01 10° W 00:15:04 52° SSW 00:18:06 10° SE
COSMOS 2455 2.9 00:11:40 21° SSW 00:15:43 68° ESE 00:21:43 10° NE
STARLINK-1221 2.9 00:12:54 10° W 00:15:56 51° SSW 00:18:58 10° SE
STARLINK-1222 2.9 00:13:48 10° W 00:16:49 51° SSW 00:19:51 10° SE
STARLINK-1243 3.6 00:12:40 10° W 00:16:50 85° N 00:21:00 10° E
STARLINK-1214 2.9 00:14:42 10° W 00:17:45 50° SSW 00:20:46 10° SE
Cosmos 1953 4.4 00:15:24 10° NW 00:17:47 15° W 00:19:26 12° WSW
Starlink 7 placeholder 4.4 00:19:27 13° ESE 00:19:27 13° ESE 00:19:52 10° E
STARLINK-1197 3.5 00:15:25 10° W 00:19:34 80° SSW 00:23:43 10° ESE
SL-14 R/B 3.2 00:18:39 25° S 00:20:49 77° E 00:24:41 10° NNE
IRAS Rocket 4.4 00:17:53 20° S 00:21:47 59° WSW 00:27:18 10° NNW
STARLINK-1236 3.6 00:17:39 10° W 00:21:49 85° N 00:25:59 10° E
Cosmos 1300 2.6 00:19:02 10° NNW 00:22:52 74° W 00:25:04 24° S
STARLINK-1198 3.5 00:20:22 10° W 00:24:32 78° SSW 00:28:40 10° ESE
Okean 1-7 Rocket 3.6 00:22:03 23° SSW 00:24:48 84° W 00:29:21 10° N
Cosmos 1174 3.5 00:23:33 29° SSW 00:25:03 65° SE 00:28:48 10° NE
Cosmos 921 Rocket 3.6 00:23:34 20° S 00:26:12 48° ESE 00:30:22 10° NNE
COSMOS 2487 3.9 00:23:52 10° NW 00:26:34 21° WSW 00:27:18 20° WSW
BREEZE M DEB (TANK) 2.6 00:26:49 32° S 00:26:49 32° S 00:29:27 10° ESE
STARLINK-1199 3.5 00:25:23 10° W 00:29:32 76° SSW 00:33:41 10° ESE
STARLINK-1269 3.6 00:27:36 10° W 00:31:46 85° N 00:35:56 10° E
Cosmos 2219 3.3 00:26:12 10° NNW 00:31:56 79° ENE 00:37:35 10° SE
Meteor 2-16 Rocket 4.5 00:27:43 18° S 00:32:26 82° E 00:38:35 10° NNE
Cosmos 1626 Rocket 4.0 00:29:36 18° SSE 00:32:41 54° E 00:36:56 10° NNE
STARLINK-1210 3.5 00:30:21 10° W 00:34:29 73° SSW 00:38:38 10° ESE
Cosmos 1626 2.2 00:34:31 24° SSW 00:36:36 69° WNW 00:40:20 10° N
STARLINK-1200 3.6 00:32:36 10° W 00:36:46 85° N 00:40:56 10° E
STARLINK-60 3.7 00:36:27 27° SSW 00:37:29 35° SSE 00:40:28 10° E
Cosmos 1656 Rocket 4.3 00:33:51 14° SW 00:38:38 51° NW 00:44:05 10° NNE
STARLINK-1219 3.5 00:35:19 10° WNW 00:39:28 71° SSW 00:43:35 10° ESE
Nadezhda 1 Rocket 4.0 00:34:06 10° NNW 00:40:16 82° W 00:45:52 13° S
STARLINK-1192 3.6 00:37:35 10° W 00:41:46 85° N 00:45:55 10° E
FALCON 9 R/B 4.1 00:38:25 17° SSW 00:43:11 29° SSE 00:59:43 10° ESE
STARLINK-1211 3.5 00:40:17 10° WNW 00:44:25 68° SSW 00:48:32 10° ESE
STARLINK-1244 3.6 00:42:33 10° W 00:46:43 85° N 00:50:53 10° E
Cosmos 2297 Rocket 2.3 00:41:53 10° NNW 00:47:36 83° ENE 00:53:15 10° SSE
MOZ.5/SAFIR/RUBIN 5/SL-8 3.8 00:44:15 17° S 00:47:47 61° WSW 00:52:24 10° NNW
UNK 3.7 00:44:00 14° S 00:48:02 79° WSW 00:52:39 10° NNW
Cosmos 220 Rocket 4.4 00:46:16 18° S 00:49:23 59° ESE 00:53:45 10° NNE
STARLINK-1245 3.5 00:45:17 10° WNW 00:49:25 66° SSW 00:53:31 10° ESE
ERBS 3.8 00:46:20 10° WNW 00:49:30 39° N 00:52:40 10° ENE
Cosmos 1812 Rocket 3.6 00:45:46 10° N 00:50:17 85° ENE 00:54:30 12° SSE
CZ-4B R/B 4.2 00:45:35 10° NNE 00:50:35 50° E 00:55:16 12° S
STARLINK-1138 3.6 00:47:32 10° W 00:51:43 86° N 00:55:52 10° E
SL-4 R/B 2.7 00:49:12 17° SW 00:52:35 47° SSE 00:57:06 10° E
STARLINK-1203 3.7 00:50:08 10° W 00:54:21 87° N 00:58:35 10° E
STARLINK-1233 3.6 00:50:15 10° WNW 00:54:22 63° SSW 00:58:28 10° ESE
Cosmos 1437 2.6 00:52:48 24° SSW 00:54:26 69° WNW 00:57:27 10° N
Cosmos 990 Rocket 4.3 00:50:06 10° NNW 00:55:23 71° ENE 01:00:38 10° SSE
SL-19 R/B 4.5 00:50:21 10° NNE 00:55:36 61° WNW 01:00:03 16° SW
STARLINK-1143 3.6 00:52:31 10° W 00:56:42 87° N 01:00:51 10° E
Timation 2 Rocket 4.4 00:53:18 10° NW 00:59:14 41° WSW 01:04:30 12° S
STARLINK-1204 3.6 00:55:15 10° WNW 00:59:21 60° SSW 01:03:26 10° ESE
ATLAS CENTAUR R/B 1.4 00:56:56 16° SW 01:00:19 79° NW 01:04:24 10° NE
Alouette 2 Rocket 4.5 00:54:02 10° NNW 01:01:26 78° ENE 01:06:08 10° SSE
STARLINK-1241 3.6 00:57:30 10° W 01:01:40 88° N 01:05:50 10° E
SL-16 R/B 2.6 00:56:02 11° S 01:01:54 63° WSW 01:08:03 10° NNW
BREEZE-M R/B 3.9 01:01:07 17° SSW 01:03:13 25° SSE 01:05:47 10° ESE
NOSS 3-4 (A) 3.8 00:57:31 10° WSW 01:03:26 67° NW 01:10:00 10° NE
NOSS 3-4 (C) 3.7 00:57:37 11° WSW 01:03:32 68° NW 01:10:06 10° NE
STARLINK-1238 3.6 01:00:12 10° WNW 01:04:17 58° SSW 01:08:21 10° SE
Cosmos 1455 2.3 01:01:32 10° N 01:05:18 73° ENE 01:09:03 10° SSE
Cosmos 1602 Rocket 3.5 01:01:58 16° S 01:05:26 88° E 01:09:48 10° NNE
STARLINK-29 3.9 01:04:34 20° SSW 01:06:09 32° SSE 01:09:04 10° E
ATLAS 3B R/B 3.4 01:00:45 10° WNW 01:06:37 32° WSW 01:12:39 10° S
STARLINK-1239 3.6 01:02:28 10° W 01:06:38 89° N 01:10:48 10° E
STARLINK-1201 3.7 01:05:13 10° WNW 01:09:16 55° SSW 01:13:19 10° SE
IRS-1D 4.3 01:04:33 10° NNE 01:09:48 51° E 01:14:56 10° S
BREEZE-M DEB (TANK) 4.1 01:09:30 10° SSE 01:09:53 10° SE 01:10:24 10° SE
CENTAUR R/B 4.4 01:04:15 10° WNW 01:09:57 21° WSW 01:14:47 13° SW
GP-B 3.4 01:06:58 10° N 01:11:24 66° E 01:15:49 10° S
STARLINK-1240 3.6 01:07:28 10° W 01:11:38 90° WNW 01:15:48 10° E
Meteor 2-1 Rocket 4.3 01:07:05 10° NNW 01:12:32 63° W 01:17:59 10° S
BREEZE-M DEB (TANK) 1.7 01:12:38 18° SW 01:14:06 36° S 01:16:20 10° E
STARLINK-1206 3.7 01:10:11 10° WNW 01:14:14 52° SSW 01:18:16 10° SE
Cosmos-2242 3.3 01:10:37 10° N 01:14:54 69° ENE 01:19:08 10° SSE
STARLINK-1216 3.6 01:12:26 10° W 01:16:37 89° S 01:20:46 10° E
Cosmos 1400 Rocket 4.4 01:13:16 10° N 01:17:06 36° ENE 01:20:57 10° SE
Cosmos 1745 Rocket 4.1 01:12:45 14° SSW 01:18:04 63° WNW 01:24:11 10° N
STARLINK-1205 3.8 01:15:10 10° W 01:19:12 50° SSW 01:23:12 10° SE
Cosmos 2181 Rocket 4.2 01:14:56 10° N 01:21:24 85° E 01:27:52 10° S
STARLINK-1237 3.6 01:17:26 10° W 01:21:36 87° S 01:25:46 10° ESE
RESURS DK-1 2.6 01:19:17 14° SW 01:22:44 64° NW 01:26:52 10° NNE
Cosmos 1356 Rocket 4.4 01:19:09 10° NNW 01:22:48 31° W 01:25:48 14° SSW
Cosmos 2227 Rocket 2.2 01:17:30 10° NW 01:23:10 67° WSW 01:28:46 10° SSE
SL-08 R/B 3.7 01:18:37 10° SSE 01:23:15 65° ENE 01:27:52 10° N
STARLINK-1218 3.8 01:20:09 10° W 01:24:09 47° SSW 01:28:07 10° SE
CZ-2D R/B 2.2 01:20:08 10° NNE 01:25:25 72° WNW 01:30:15 12° SSW
STARLINK-1202 3.6 01:22:25 10° W 01:26:36 85° S 01:30:45 10° ESE
ADEOS II 2.6 01:22:55 10° NNE 01:28:06 56° E 01:33:16 10° S
Cosmos 2369 Rocket 4.3 01:24:15 10° W 01:28:30 21° NNW 01:32:44 10° NNE
Cosmos 1763 Rocket 4.2 01:24:04 10° S 01:28:58 48° ESE 01:33:51 10° NE
STARLINK-1254 3.9 01:25:09 10° W 01:29:07 45° SSW 01:33:04 10° SE
Cosmos 1697 Rocket 3.9 01:24:09 10° S 01:29:15 36° ESE 01:34:24 10° NE
Cosmos 1703 3.7 01:27:07 10° S 01:31:01 61° E 01:34:55 10° NNE
ATLAS 2AS CENTAUR R/B 3.6 01:24:48 10° WSW 01:32:42 57° NNW 01:40:24 10° NE
STARLINK-1231 4.0 01:30:09 10° W 01:34:05 42° SSW 01:38:00 10° SE
Resurs 1-4 Rocket 2.4 01:29:57 10° N 01:35:09 60° WNW 01:40:11 11° SSW
STARLINK-1246 3.6 01:32:22 10° W 01:36:32 81° SSW 01:40:41 10° ESE
STARLINK-1212 4.4 01:36:00 10° W 01:38:05 17° SW 01:40:09 10° S
STARLINK-1105 4.4 01:36:29 10° W 01:38:32 16° SW 01:40:35 10° S
STARLINK-1232 4.0 01:35:09 10° W 01:39:03 40° SSW 01:42:55 10° SE
STARLINK-1247 4.5 01:37:24 10° W 01:39:28 16° SW 01:41:31 10° S
STARLINK-1227 4.5 01:37:53 10° W 01:39:54 16° SW 01:41:54 10° S
ARIANE 5 R/B 3.4 01:35:19 10° NNE 01:40:13 45° E 01:45:02 10° S
STARLINK-1226 4.5 01:38:44 10° W 01:40:46 16° SW 01:42:46 10° S
USA 81 4.3 01:36:19 11° SSW 01:41:25 59° W 01:46:40 10° N
STARLINK-1224 3.6 01:37:21 10° W 01:41:31 79° SSW 01:45:39 10° ESE
STARLINK-52 3.3 01:39:41 12° SW 01:42:29 48° SSE 01:45:37 10° E
NPP 3.9 01:37:14 10° N 01:42:35 61° WNW 01:47:52 10° SSW
Cosmos 1758 Rocket 3.5 01:39:30 10° SSW 01:43:49 80° W 01:48:14 10° N
STARLINK-1208 4.1 01:40:07 10° W 01:43:59 38° SSW 01:47:50 10° SE
H-2A R/B 2.8 01:41:42 10° SSE 01:45:57 58° ENE 01:50:19 10° N
STARLINK-1225 3.6 01:42:20 10° W 01:46:30 77° SSW 01:50:39 10° ESE
Cosmos 1898 Rocket 3.8 01:43:00 10° NNW 01:48:11 52° WSW 01:53:19 10° S
STARLINK-1271 4.2 01:45:08 10° W 01:48:57 36° SSW 01:52:45 10° SE
Lacrosse 4 Rocket 1.5 01:45:59 10° NW 01:50:25 88° NE 01:54:41 10° SE
STARLINK-1230 3.6 01:47:19 10° W 01:51:28 74° SSW 01:55:36 10° ESE
Starlink 7 placeholder 1.6 01:49:53 10° W 01:51:50 86° S 01:53:51 10° E
Meteor 1-21 Rocket 4.4 01:46:59 10° SSW 01:52:31 63° WNW 01:58:12 10° N
IDEFIX/ARIANE 42P 4.1 01:48:41 10° NNE 01:53:29 34° E 01:58:15 10° SSE
SJ 16-02 2.0 01:49:35 10° NW 01:53:38 35° WSW 01:57:40 10° S
Cosmos 2285 Rocket 4.0 01:47:18 10° NNW 01:53:41 71° WSW 01:59:59 10° SSE
STARLINK-1154 4.2 01:50:08 10° W 01:53:55 34° SSW 01:57:39 10° SSE
Cosmos 1656 3.8 01:48:33 10° SSW 01:54:14 85° ESE 01:59:53 10° NNE
CZ-4C R/B 3.1 01:51:26 10° S 01:56:10 41° ESE 02:01:48 10° NE
STARLINK-1243 3.6 01:52:17 10° WNW 01:56:26 72° SSW 02:00:34 10° ESE
Cosmos 2084 3.6 01:52:27 10° SW 01:56:56 83° NW 02:01:26 10° NE
Cosmos 468 Rocket 4.0 01:52:43 10° SSW 01:57:51 90° WNW 02:03:01 10° NNE
Cosmos 1937 Rocket 3.6 01:53:21 10° NNW 01:58:29 57° WSW 02:03:37 10° S
STARLINK-1197 4.3 01:55:08 10° W 01:58:50 32° SW 02:02:32 10° SSE
Cosmos 1953 Rocket 3.7 01:55:40 10° S 02:00:08 87° E 02:04:37 10° NNE
Meteor 2-10 Rocket 4.3 01:55:19 10° NNW 02:00:12 36° W 02:04:54 10° SSW
Uosat 12 SS-18 rocket 4.0 01:56:29 10° NW 02:00:49 85° SW 02:05:15 10° SE
STARLINK-1236 3.6 01:57:16 10° WNW 02:01:25 69° SSW 02:05:32 10° ESE
COSMOS 2455 4.0 01:56:29 10° WSW 02:02:05 38° NW 02:07:43 10° NE
Cosmos 2369 4.2 01:57:02 10° S 02:02:32 57° ESE 02:08:05 10° NE
STARLINK-1198 4.4 02:00:07 10° W 02:03:46 30° SW 02:07:24 10° SSE
Cosmos 1842 Rocket 4.1 02:00:01 10° N 02:04:30 64° ENE 02:08:57 10° SSE
Cosmos 1709 Rocket 4.4 02:02:24 10° SSW 02:08:18 49° WNW 02:14:16 10° N
STARLINK-1199 4.5 02:05:10 10° W 02:08:45 28° SW 02:12:19 10° SSE
Iridium 2 3.8 02:05:57 10° N 02:09:43 77° E 02:13:29 10° S
STARLINK-1269 3.6 02:07:13 10° WNW 02:11:20 64° SSW 02:15:26 10° ESE
